Location: Dimsdale
(55.1333°N, 118.9833°W)
Time: 03:44:22
(UTC+00:00)

BlueWalker 3 - Visible Passes

Search period start: 10 June 2023 00:00
Search period end: 20 June 2023 00:00
Orbit: 493 x 513 km, 53.2° (Epoch: 09 June)

Date Brightness Start Highest point End Pass type
(mag) Time Alt. Az. Time Alt. Az. Time Alt. Az.
10 Jun 3.4 06:30:53 10° W 06:33:53 22° SW 06:36:05 14° S visible
11 Jun 3.5 06:10:26 10° W 06:13:25 21° SW 06:16:01 12° SSE visible
12 Jun 3.5 05:49:58 10° W 05:52:56 21° SW 05:55:53 10° SSE visible
13 Jun 3.6 05:29:30 10° W 05:32:26 21° SW 05:35:21 10° SSE visible
